Time,TemperatureF,DewpointF,PressureIn,WindDirection,WindDirectionDegrees,WindSpeedMPH,WindSpeedGustMPH,Humidity,HourlyPrecipIn,Conditions,Clouds,dailyrainin,SoftwareType,DateUTC
2013-03-12 08:00:00,75.8,58.5,29.98,NE,55,10.0,14.0,55,0.00,,,0.00,Wunderground v.1.15,2013-03-12 12:00:00,
2013-03-12 08:10:00,76.3,58.4,29.98,NE,35,9.0,10.0,54,0.00,,,0.00,Wunderground v.1.15,2013-03-12 12:10:00,
2013-03-12 08:20:00,76.5,58.6,29.98,NNE,22,9.0,11.0,54,0.00,,,0.00,Wunderground v.1.15,2013-03-12 12:20:00,
2013-03-12 11:00:00,80.7,57.4,30.02,NNE,13,12.0,12.0,45,0.00,,,0.00,Wunderground v.1.15,2013-03-12 15:00:00,
2013-03-12 11:10:00,80.5,57.8,30.02,North,11,11.0,11.0,46,0.00,,,0.00,Wunderground v.1.15,2013-03-12 15:10:00,
2013-03-12 11:20:00,81.6,57.6,30.01,NNE,25,10.0,10.0,44,0.00,,,0.00,Wunderground v.1.15,2013-03-12 15:20:00,
2013-03-12 11:30:00,81.4,58.0,30.01,NNE,32,11.0,12.0,45,0.00,,,0.00,Wunderground v.1.15,2013-03-12 15:30:00,
2013-03-12 11:40:00,81.6,58.8,30.01,NNE,22,11.0,11.0,46,0.00,,,0.00,Wunderground v.1.15,2013-03-12 15:40:00,
2013-03-12 11:50:00,82.0,59.2,30.01,NE,38,11.0,11.0,46,0.00,,,0.00,Wunderground v.1.15,2013-03-12 15:50:00,
2013-03-12 12:00:00,81.6,58.2,30.01,NE,44,12.0,12.0,45,0.00,,,0.00,Wunderground v.1.15,2013-03-12 16:00:00,
2013-03-12 12:10:00,81.8,59.0,30.00,NNE,22,10.0,10.0,46,0.00,,,0.00,Wunderground v.1.15,2013-03-12 16:10:00,
2013-03-12 12:20:00,82.4,59.5,30.00,NE,34,9.0,9.0,46,0.00,,,0.00,Wunderground v.1.15,2013-03-12 16:20:00,
2013-03-12 12:30:00,81.4,60.4,30.00,North,4,11.0,11.0,49,0.00,,,0.00,Wunderground v.1.15,2013-03-12 16:30:00,
2013-03-12 12:40:00,82.2,60.0,29.99,NNE,32,11.0,11.0,47,0.00,,,0.00,Wunderground v.1.15,2013-03-12 16:40:00,
2013-03-12 12:50:00,81.4,60.4,29.98,NNE,28,12.0,13.0,49,0.00,,,0.00,Wunderground v.1.15,2013-03-12 16:50:00,
2013-03-12 13:00:00,80.7,60.3,29.98,NNE,28,12.0,17.0,50,0.00,,,0.00,Wunderground v.1.15,2013-03-12 17:00:00,
2013-03-12 13:10:00,80.7,62.0,29.98,NE,51,11.0,11.0,53,0.00,,,0.00,Wunderground v.1.15,2013-03-12 17:10:00,
2013-03-12 13:20:00,80.1,61.4,29.97,NNE,18,11.0,17.0,53,0.00,,,0.00,Wunderground v.1.15,2013-03-12 17:20:00,
2013-03-12 13:30:00,80.5,61.3,29.97,NNE,25,11.0,11.0,52,0.00,,,0.00,Wunderground v.1.15,2013-03-12 17:30:00,
2013-03-12 13:40:00,82.0,61.0,29.96,NNE,18,11.0,11.0,49,0.00,,,0.00,Wunderground v.1.15,2013-03-12 17:40:00,
2013-03-12 13:50:00,80.7,62.0,29.95,NNE,27,12.0,12.0,53,0.00,,,0.00,Wunderground v.1.15,2013-03-12 17:50:00,
2013-03-12 14:00:00,79.8,61.7,29.95,NE,37,11.0,11.0,54,0.00,,,0.00,Wunderground v.1.15,2013-03-12 18:00:00,
2013-03-12 14:10:00,80.3,61.6,29.95,North,1,11.0,11.0,53,0.00,,,0.00,Wunderground v.1.15,2013-03-12 18:10:00,
2013-03-12 14:20:00,79.6,62.0,29.95,NNE,32,12.0,13.0,55,0.00,,,0.00,Wunderground v.1.15,2013-03-12 18:20:00,
2013-03-12 14:30:00,79.6,62.0,29.95,NE,45,11.0,17.0,55,0.00,,,0.00,Wunderground v.1.15,2013-03-12 18:30:00,
2013-03-12 14:40:00,79.4,61.8,29.93,NNE,25,11.0,13.0,55,0.00,,,0.00,Wunderground v.1.15,2013-03-12 18:40:00,
2013-03-12 14:50:00,79.0,62.0,29.93,North,5,10.0,13.0,56,0.00,,,0.00,Wunderground v.1.15,2013-03-12 18:50:00,
2013-03-12 15:00:00,78.6,61.6,29.93,NE,53,11.0,11.0,56,0.00,,,0.00,Wunderground v.1.15,2013-03-12 19:00:00,
2013-03-12 15:10:00,79.0,60.9,29.93,NE,45,9.0,14.0,54,0.00,,,0.00,Wunderground v.1.15,2013-03-12 19:10:00,
2013-03-12 15:20:00,79.4,61.3,29.93,NE,55,8.0,8.0,54,0.00,,,0.00,Wunderground v.1.15,2013-03-12 19:20:00,
2013-03-12 15:30:00,79.4,60.8,29.93,NE,47,8.0,11.0,53,0.00,,,0.00,Wunderground v.1.15,2013-03-12 19:30:00,
2013-03-12 15:40:00,78.5,61.0,29.93,ENE,61,9.0,13.0,55,0.00,,,0.00,Wunderground v.1.15,2013-03-12 19:40:00,
2013-03-12 15:50:00,78.5,60.5,29.92,NNE,32,10.0,12.0,54,0.00,,,0.00,Wunderground v.1.15,2013-03-12 19:50:00,
2013-03-12 16:00:00,78.1,60.1,29.92,East,84,9.0,9.0,54,0.00,,,0.00,Wunderground v.1.15,2013-03-12 20:00:00,
2013-03-12 16:10:00,78.1,61.6,29.93,NE,50,9.0,9.0,57,0.00,,,0.00,Wunderground v.1.15,2013-03-12 20:10:00,
2013-03-12 16:20:00,78.5,61.0,29.93,NE,48,10.0,11.0,55,0.00,,,0.00,Wunderground v.1.15,2013-03-12 20:20:00,
2013-03-12 16:30:00,77.9,60.9,29.93,North,9,9.0,9.0,56,0.00,,,0.00,Wunderground v.1.15,2013-03-12 20:30:00,
2013-03-12 16:40:00,78.1,60.1,29.93,NE,49,11.0,11.0,54,0.00,,,0.00,Wunderground v.1.15,2013-03-12 20:40:00,
2013-03-12 16:50:00,77.6,60.2,29.93,NNE,19,8.0,9.0,55,0.00,,,0.00,Wunderground v.1.15,2013-03-12 20:50:00,
2013-03-12 17:00:00,78.1,60.1,29.93,ENE,75,10.0,15.0,54,0.00,,,0.00,Wunderground v.1.15,2013-03-12 21:00:00,
2013-03-12 17:10:00,77.9,60.4,29.94,ENE,62,10.0,10.0,55,0.00,,,0.00,Wunderground v.1.15,2013-03-12 21:10:00,
2013-03-12 17:20:00,77.7,59.7,29.94,NE,50,10.0,11.0,54,0.00,,,0.00,Wunderground v.1.15,2013-03-12 21:20:00,
2013-03-12 17:30:00,77.0,59.1,29.94,ENE,69,9.0,9.0,54,0.00,,,0.00,Wunderground v.1.15,2013-03-12 21:30:00,
2013-03-12 17:40:00,76.7,59.3,29.94,NE,38,9.0,9.0,55,0.00,,,0.00,Wunderground v.1.15,2013-03-12 21:40:00,
2013-03-12 17:50:00,76.3,59.4,29.94,ESE,102,8.0,9.0,56,0.00,,,0.00,Wunderground v.1.15,2013-03-12 21:50:00,
2013-03-12 18:00:00,75.8,59.0,29.94,NE,37,7.0,7.0,56,0.00,,,0.00,Wunderground v.1.15,2013-03-12 22:00:00,
2013-03-12 18:10:00,75.1,58.8,29.95,ENE,62,7.0,7.0,57,0.00,,,0.00,Wunderground v.1.15,2013-03-12 22:10:00,
2013-03-12 18:20:00,74.4,58.7,29.95,ENE,66,6.0,6.0,58,0.00,,,0.00,Wunderground v.1.15,2013-03-12 22:20:00,
2013-03-12 18:30:00,73.9,58.7,29.95,ENE,67,5.0,5.0,59,0.00,,,0.00,Wunderground v.1.15,2013-03-12 22:30:00,
2013-03-12 18:40:00,73.5,58.8,29.95,NE,51,6.0,6.0,60,0.00,,,0.00,Wunderground v.1.15,2013-03-12 22:40:00,
2013-03-12 18:50:00,73.2,58.9,29.96,ENE,57,4.0,4.0,61,0.00,,,0.00,Wunderground v.1.15,2013-03-12 22:50:00,
2013-03-12 19:00:00,72.8,59.0,29.96,NE,48,4.0,4.0,62,0.00,,,0.00,Wunderground v.1.15,2013-03-12 23:00:00,
2013-03-12 19:10:00,72.7,58.9,29.96,NE,51,4.0,6.0,62,0.00,,,0.00,Wunderground v.1.15,2013-03-12 23:10:00,
2013-03-12 19:20:00,72.3,58.5,29.96,NE,49,4.0,5.0,62,0.00,,,0.00,Wunderground v.1.15,2013-03-12 23:20:00,
2013-03-12 19:30:00,72.0,58.7,29.96,NE,53,4.0,5.0,63,0.00,,,0.00,Wunderground v.1.15,2013-03-12 23:30:00,
2013-03-12 19:40:00,71.8,58.5,29.96,ENE,59,4.0,8.0,63,0.00,,,0.00,Wunderground v.1.15,2013-03-12 23:40:00,
2013-03-12 19:50:00,71.8,58.1,29.97,ENE,58,5.0,5.0,62,0.00,,,0.00,Wunderground v.1.15,2013-03-12 23:50:00,
2013-03-12 20:00:00,71.8,57.6,29.97,ENE,63,5.0,5.0,61,0.00,,,0.00,Wunderground v.1.15,2013-03-13 00:00:00,